SL-16 R/B

Satellite information

Favourite Embed

Satellite Type and Status

ROCKET BODYIN ORBIT

Key statistics

Satellite SL-16 R/B at a glance.

Uptime

9594

Days in orbit

Revolutions

≈ 14.8

Per day

Orbit

SSO

Sun Synchronous Orbit

Inclination

98.0

Latest

Satellite identification and parameters

Extended collection of information and parameters for SL-16 R/B.

Object identification

Identified? True

Debris? False

Object name: SL-16 R/B

International designator: 1999-039B

Object number (NORAD): 25861

Object ID (CCSDS): 25861

Country: COMMONWEALTH OF INDEPENDENT STATES (CIS)

Current information (Y/N): Y

RCS size: LARGE

Orbital parameters

Period: 97.2 minutes

Inclination: 98.0206 deg

SMA: 7002.804 km

Apoapsis: 634.915 km

Periapsis: 614.424 km

RAAN: 348.8407 deg

Eccentricy: 0.001463

Argument of periapsis: 353.7781 deg

Mean anomaly: 6.3247 deg

Mean motion: 14.81476488 rev/day

Mean motion (dot): 0.00001101 rev/day2

B* drag term: 0.00014722 1/REarth

Two-line elements (TLE)

Creation date: Oct. 22, 2025, 12:06 a.m.

Reference frame: TEME

Reference center: EARTH

Epoch: Oct. 21, 2025, 5:05 p.m. UTC

TLE line 0: 0 SL-16 R/B

TLE line 1: 1 25861U 99039B 25294.71216655 .00001101 00000-0 14722-3 0 9999

TLE line 2: 2 25861 98.0206 348.8407 0014630 353.7781 6.3247 14.81476488416285

Live tracking on map

Real-time ground track for satellite SL-16 R/B.

In-orbit conjunctions

A list of the most updated potential collisions computed for object SL-16 R/B.

Target Orbit TCA Probability of collision Miss distance Type
CZ-4C DEB SSO 2025-07-11 09:32:22 0.0003082552 330.0 (m) DEBRIS
OBJECT C SSO 2025-05-15 22:12:08 0.002085755 61.0 (m) UNKNOWN
SL-14 R/B LEO 2025-03-13 02:51:42 0.000279672 435.0 (m) ROCKET BODY
ELECTRON KICK STAGE R/B LEO 2024-09-20 12:12:14 0.0001551539 597.0 (m) ROCKET BODY

Associated space launch

Okean-O was a joint Ukrainian and Russian remote sensing satellite program designed as a follow on to the Okean-O1 series. It was designed to gather remote sensing data crucial for research of natural resources of the Earth and world oceans. The mission also included ecological monitoring and management of externalities (weather forecast, hazards prevention).

SL-16 R/B was lifted into orbit during the mission ‘Zenit-2 | Okean-O’, on board a Zenit-2 space rocket.

The launch took place on July 17, 1999, 5:38 a.m. from 45/1.

For more information about the launch, click the button.

Launch to space Zenit-2 | Okean-O
Zenit-2 | Okean-O

Agency: N/A

Status: Launch Successful

Launch date: July 17, 1999, 5:38 a.m. UTC

Rocket: Zenit-2

Launch pad: 45/1

Location: Baikonur Cosmodrome, Republic of Kazakhstan

...

Latest news about this satellite

There are no fresh news available about this satellite. Check back as we update our databases every day.


Newsletter sign-up

Weekly statistics, charts and insights to help you stay on top of the space industry.